Location: Schommer Observatory
(40.5200°N, 74.4500°W)
Time: 14:34:32
(UTC-04:00)

Tiangong 2 - Visible Passes

Search period start: 22 June 2017 00:00
Search period end: 02 July 2017 00:00
Orbit: 391 x 396 km, 42.8° (Epoch: 21 June)

Date Brightness Start Highest point End Pass type
(mag) Time Alt. Az. Time Alt. Az. Time Alt. Az.
27 Jun 3.6 04:26:51 10° S 04:28:16 12° SE 04:29:41 10° ESE visible
29 Jun 2.7 04:09:45 18° S 04:11:08 23° SSE 04:13:47 10° E visible
30 Jun 3.6 03:15:16 13° SE 03:15:16 13° SE 03:16:09 10° ESE visible
30 Jun 1.2 04:47:41 10° WSW 04:50:52 67° SSE 04:54:04 10° ENE visible
01 Jul 1.7 03:53:04 33° SSW 03:53:55 42° SSE 03:56:59 10° E visible
